Port Isabel, TX

9:42 AM CST on February 23, 2017 (GMT -0600)
Port Isabel-Cameron County

Weather History for KPIL - March, 2013

Change the Weather History Date:

Tuesday, March 19, 2013

  Actual Average (KBRO) Record (KBRO)
Temperature  
Mean Temperature 72 °F -  
Max Temperature 81 °F 76 °F 95 °F (1899)
Min Temperature 64 °F 58 °F 38 °F (1988)
Cooling Degree Days 7    
Growing Degree Days 22 (Base 50)    
Moisture  
Dew Point 67 °F    
Average Humidity 83    
Maximum Humidity 96    
Minimum Humidity 61    
Precipitation  
Precipitation 0.01 in - - ()
Sea Level Pressure  
Sea Level Pressure 29.85 in    
Wind  
Wind Speed 7 mph (East)    
Max Wind Speed 17 mph    
Max Gust Speed -    
Visibility 4 miles    
Events Fog , Rain    
Averages and records for this station are not official NWS values.
T = Trace of Precipitation, MM = Missing Value Source: NWS Daily Summary

Daily Weather History Graph

Daily Weather History Graph

Search for Another Location

Airport or City:

Trip Planner

Search our weather history database for the weather conditions in past years. The results will help you decide how hot, cold, wet, or windy it might be!

Date:

Astronomy

Mar. 19, 2013 Rise Set
Actual Time 7:34 AM CDT 7:40 PM CDT
Civil Twilight 7:11 AM CDT 8:03 PM CDT
Nautical Twilight 6:44 AM CDT 8:30 PM CDT
Astronomical Twilight 6:17 AM CDT 8:57 PM CDT
Moon 12:56 PM CDT (3/19) 1:57 AM CDT (3/19)
Length of Visible Light 12h 52m
Length of Day
12h 06m
Waxing Crescent, 50% of the Moon is Illuminated
Mar 19
Waxing Crescent
Mar 19
First Quarter
Mar 27
Full
Apr 2
Last Quarter
Apr 10
New

Hourly Weather History & Observations

Time (CDT) Temp. Heat Index Dew Point Humidity Pressure Visibility Wind Dir Wind Speed Gust Speed Precip Events Conditions
12:53 AM - - - N/A% 29.83 in 4.0 mi SSE 3.5 mph - N/A   Haze
1:17 AM 69.8 °F - 66.2 °F 88% 29.83 in 0.8 mi SSE 3.5 mph - N/A   Mist
1:29 AM 69.8 °F - 66.2 °F 88% 29.83 in 1.2 mi SE 3.5 mph - N/A   Partly Cloudy
1:53 AM 68.0 °F - 66.0 °F 93% 29.83 in 0.5 mi South 3.5 mph - N/A Fog Fog
2:03 AM 68.0 °F - 64.4 °F 88% 29.83 in 0.2 mi South 3.5 mph - N/A Fog Fog
2:37 AM - - - N/A% 29.83 in 0.2 mi Calm Calm - 0.00 in Rain Light Rain
2:51 AM 64.4 °F - 62.6 °F 94% 29.84 in 0.5 mi NNW 4.6 mph - 0.00 in Fog Fog
2:53 AM 64.0 °F - 62.1 °F 93% 29.84 in 0.5 mi NNW 4.6 mph - 0.00 in Fog Fog
3:53 AM 68.0 °F - 66.9 °F 96% 29.85 in 0.5 mi North 6.9 mph - 0.01 in Fog Fog
4:18 AM 69.8 °F - 68.0 °F 94% 29.85 in 1.0 mi North 6.9 mph - N/A   Mist
4:28 AM 69.8 °F - 68.0 °F 94% 29.86 in 0.8 mi North 5.8 mph - N/A   Mist
4:48 AM 69.8 °F - 68.0 °F 94% 29.85 in 1.2 mi NNE 10.4 mph - N/A   Overcast
4:53 AM 70.0 °F - 68.0 °F 93% 29.85 in 1.2 mi NNE 5.8 mph - N/A   Overcast
5:53 AM 69.1 °F - 66.9 °F 93% 29.87 in 1.2 mi NNE 9.2 mph - N/A   Overcast
6:32 AM 69.8 °F - 66.2 °F 88% 29.87 in 2.5 mi NE 9.2 mph - N/A   Overcast
6:39 AM 69.8 °F - 66.2 °F 88% 29.87 in 4.0 mi NNE 11.5 mph - N/A   Overcast
6:53 AM 69.1 °F - 66.9 °F 93% 29.88 in 4.0 mi NE 8.1 mph - N/A   Overcast
7:53 AM 69.1 °F - 66.9 °F 93% 29.91 in 4.0 mi NE 10.4 mph - N/A   Overcast
8:21 AM 69.8 °F - 66.2 °F 88% 29.91 in 4.0 mi ENE 8.1 mph - N/A   Overcast
8:53 AM 71.1 °F - 66.9 °F 87% 29.92 in 4.0 mi ENE 12.7 mph - N/A   Overcast
9:29 AM 71.6 °F - 68.0 °F 88% 29.93 in 5.0 mi East 8.1 mph - N/A   Mostly Cloudy
9:53 AM 73.0 °F - 68.0 °F 84% 29.94 in 5.0 mi ENE 8.1 mph - N/A   Haze
10:53 AM 75.9 °F - 68.0 °F 76% 29.94 in 6.0 mi ENE 8.1 mph - N/A   Haze
11:53 AM 75.9 °F - 68.0 °F 76% 29.94 in 7.0 mi East 11.5 mph - N/A   Overcast
12:53 PM 79.0 °F - 66.9 °F 66% 29.92 in 7.0 mi ESE 11.5 mph - N/A   Overcast
1:53 PM 80.1 °F 82.3 °F 66.9 °F 64% 29.89 in 7.0 mi ESE 15.0 mph - N/A   Overcast
2:33 PM 80.6 °F 82.7 °F 66.2 °F 61% 29.86 in 6.0 mi ESE 15.0 mph - N/A   Haze
2:53 PM 80.1 °F 82.3 °F 66.9 °F 64% 29.85 in 6.0 mi East 16.1 mph - N/A   Haze
3:53 PM 79.0 °F - 66.9 °F 66% 29.81 in 6.0 mi ESE 17.3 mph - N/A   Haze
4:53 PM 79.0 °F - 66.9 °F 66% 29.79 in 6.0 mi ESE 13.8 mph - N/A   Haze
5:53 PM 77.0 °F - 68.0 °F 74% 29.78 in 6.0 mi ESE 15.0 mph - N/A   Haze
6:06 PM 77.0 °F - 69.8 °F 78% 29.78 in 6.0 mi ESE 16.1 mph - N/A   Haze
6:53 PM 75.9 °F - 69.1 °F 79% 29.78 in 5.0 mi ESE 11.5 mph - N/A   Haze
7:53 PM 75.9 °F - 68.0 °F 76% 29.80 in 8.0 mi SSE 12.7 mph - N/A   Overcast
8:13 PM 75.2 °F - 68.0 °F 78% 29.82 in 8.0 mi SE 10.4 mph - N/A   Overcast
8:53 PM 75.9 °F - 66.9 °F 74% 29.82 in 8.0 mi SSE 12.7 mph - N/A   Overcast
9:53 PM 75.9 °F - 69.1 °F 79% 29.84 in 7.0 mi ESE 9.2 mph - N/A   Overcast
10:53 PM 73.9 °F - 69.1 °F 85% 29.84 in 6.0 mi ESE 9.2 mph - N/A   Haze
11:01 PM 73.4 °F - 69.8 °F 88% 29.84 in 6.0 mi ESE 8.1 mph - N/A   Haze
11:43 PM 73.4 °F - 69.8 °F 88% 29.84 in 7.0 mi SE 10.4 mph - N/A   Mostly Cloudy
11:53 PM 73.9 °F - 69.1 °F 85% 29.84 in 7.0 mi ESE 10.4 mph - N/A   Mostly Cloudy